Time,TemperatureF,DewpointF,PressureIn,WindDirection,WindDirectionDegrees,WindSpeedMPH,WindSpeedGustMPH,Humidity,HourlyPrecipIn,Conditions,Clouds,dailyrainin,SoftwareType,DateUTC
2015-03-03 00:00:00,25.8,12.0,30.35,NNW,329,5.0,0.0,55,0.00,,,0.00,oem by Ross Wheeler,2015-03-03 05:00:00,
2015-03-03 00:10:00,25.5,11.0,30.35,NW,322,0.0,0.0,55,0.00,,,0.00,oem by Ross Wheeler,2015-03-03 05:10:00,
2015-03-03 00:15:00,25.3,11.0,30.35,NW,316,2.0,0.0,56,0.00,,,0.00,oem by Ross Wheeler,2015-03-03 05:15:00,
2015-03-03 00:25:00,25.2,11.0,30.35,NNW,330,2.0,0.0,56,0.00,,,0.00,oem by Ross Wheeler,2015-03-03 05:25:00,
2015-03-03 00:30:00,24.9,11.0,30.35,WNW,302,2.0,0.0,57,0.00,,,0.00,oem by Ross Wheeler,2015-03-03 05:30:00,
2015-03-03 00:40:00,24.6,12.0,30.35,WNW,303,0.0,0.0,58,0.00,,,0.00,oem by Ross Wheeler,2015-03-03 05:40:00,
2015-03-03 00:45:00,24.5,11.0,30.35,NW,311,1.0,0.0,57,0.00,,,0.00,oem by Ross Wheeler,2015-03-03 05:45:00,
2015-03-03 00:55:00,24.3,11.0,30.36,NW,312,0.0,0.0,58,0.00,,,0.00,oem by Ross Wheeler,2015-03-03 05:55:00,
2015-03-03 01:00:00,23.9,11.0,30.36,NW,312,0.0,0.0,59,0.00,,,0.00,oem by Ross Wheeler,2015-03-03 06:00:00,
2015-03-03 01:10:00,23.3,12.0,30.36,NW,312,0.0,0.0,61,0.00,,,0.00,oem by Ross Wheeler,2015-03-03 06:10:00,
2015-03-03 01:15:00,23.0,12.0,30.36,NW,312,0.0,0.0,62,0.00,,,0.00,oem by Ross Wheeler,2015-03-03 06:15:00,
2015-03-03 01:25:00,22.4,12.0,30.36,NW,312,0.0,0.0,64,0.00,,,0.00,oem by Ross Wheeler,2015-03-03 06:25:00,
2015-03-03 01:30:00,22.1,12.0,30.36,NW,312,2.0,0.0,65,0.00,,,0.00,oem by Ross Wheeler,2015-03-03 06:30:00,
2015-03-03 01:40:00,22.2,11.0,30.37,NW,312,0.0,0.0,63,0.00,,,0.00,oem by Ross Wheeler,2015-03-03 06:40:00,
2015-03-03 01:45:00,22.2,12.0,30.37,NW,312,0.0,0.0,64,0.00,,,0.00,oem by Ross Wheeler,2015-03-03 06:45:00,
2015-03-03 01:55:00,21.7,11.0,30.37,NW,312,0.0,0.0,64,0.00,,,0.00,oem by Ross Wheeler,2015-03-03 06:55:00,
2015-03-03 02:00:00,21.6,11.0,30.37,NW,312,0.0,0.0,65,0.00,,,0.00,oem by Ross Wheeler,2015-03-03 07:00:00,
2015-03-03 02:10:00,21.4,11.0,30.37,NW,312,0.0,0.0,65,0.00,,,0.00,oem by Ross Wheeler,2015-03-03 07:10:00,
2015-03-03 02:15:00,21.4,11.0,30.37,NW,312,1.0,0.0,65,0.00,,,0.00,oem by Ross Wheeler,2015-03-03 07:15:00,
2015-03-03 02:25:00,21.1,11.0,30.36,NW,312,0.0,0.0,65,0.00,,,0.00,oem by Ross Wheeler,2015-03-03 07:25:00,
2015-03-03 02:30:00,21.0,11.0,30.36,NW,312,0.0,0.0,66,0.00,,,0.00,oem by Ross Wheeler,2015-03-03 07:30:00,
2015-03-03 02:40:00,20.6,11.0,30.36,NW,312,0.0,0.0,67,0.00,,,0.00,oem by Ross Wheeler,2015-03-03 07:40:00,
2015-03-03 02:45:00,20.5,11.0,30.36,NW,312,0.0,0.0,67,0.00,,,0.00,oem by Ross Wheeler,2015-03-03 07:45:00,
2015-03-03 02:55:00,20.0,11.0,30.36,NW,312,0.0,0.0,68,0.00,,,0.00,oem by Ross Wheeler,2015-03-03 07:55:00,
2015-03-03 03:00:00,20.0,11.0,30.36,NW,308,0.0,0.0,69,0.00,,,0.00,oem by Ross Wheeler,2015-03-03 08:00:00,
2015-03-03 03:10:00,19.8,11.0,30.36,NW,308,0.0,0.0,69,0.00,,,0.00,oem by Ross Wheeler,2015-03-03 08:10:00,
2015-03-03 03:15:00,19.7,11.0,30.36,NW,308,0.0,0.0,69,0.00,,,0.00,oem by Ross Wheeler,2015-03-03 08:15:00,